EW7156 Weather Reports


time (UTC)temp
C
wind
direction
speed
KPH
gust
KPH
rain 1hr
cm
rain 24hr
cm
rain mn
cm
humidity
%
barometer
mb
20260504044215 7 25 0.0 0.0 0.00 0.00 0.00 60 1119.4
20260504042412 7 157 0.0 0.0 0.00 0.00 0.00 59 1119.4
20260504041414 7 157 0.0 0.0 0.00 0.00 0.00 60 1119.4
20260504040415 7 157 0.0 0.0 0.00 0.00 0.00 59 1119.0
20260504035424 7 202 1.6 3.2 0.00 0.00 0.00 60 1119.0
20260504034521 7 202 0.0 3.2 0.00 0.00 0.00 60 1119.0
20260504032522 7 247 0.0 0.0 0.00 0.00 0.00 62 1119.0
20260504031620 7 247 0.0 0.0 0.00 0.00 0.00 62 1119.0
20260504030623 7 247 0.0 0.0 0.00 0.00 0.00 61 1119.2
20260504025621 8 247 0.0 0.0 0.00 0.00 0.00 59 1119.4
20260504024622 8 247 0.0 0.0 0.00 0.00 0.00 58 1119.4
20260504023623 8 247 0.0 0.0 0.00 0.00 0.00 57 1119.4
20260504021722 8 247 0.0 0.0 0.00 0.00 0.00 56 1119.4
20260504020722 8 247 0.0 0.0 0.00 0.00 0.00 56 1119.8
20260504015722 8 247 0.0 0.0 0.00 0.00 0.00 55 1119.8
20260504015622 9 247 0.0 0.0 0.00 0.00 0.00 55 1119.8
20260504014721 9 247 0.0 0.0 0.00 0.00 0.00 55 1119.8
20260504013723 9 247 0.0 0.0 0.00 0.00 0.00 54 1119.4
20260504012723 10 247 0.0 0.0 0.00 0.00 0.00 52 1119.4
20260504011725 10 247 0.0 0.0 0.00 0.00 0.00 51 1119.4
20260504005722 11 247 0.0 0.0 0.00 0.00 0.00 47 1119.4
20260504003723 11 261 0.0 1.6 0.00 0.00 0.00 45 1119.4
20260504002820 12 270 0.0 0.0 0.00 0.00 0.00 44 1119.8
20260504001822 12 275 1.6 4.8 0.00 0.00 0.00 43 1119.8
20260503235923 12 292 0.0 0.0 0.00 0.00 0.00 42 1119.8
20260503235021 13 218 0.0 4.8 0.00 0.00 0.00 41 1119.8
20260503234023 13 331 1.6 6.4 0.00 0.00 0.00 40 1119.8
20260503233022 13 122 0.0 3.2 0.00 0.00 0.00 39 1119.8
20260503232022 13 321 0.0 3.2 0.00 0.00 0.00 38 1120.0
20260503231022 14 238 4.8 9.7 0.00 0.00 0.00 38 1119.8
20260503230021 14 310 1.6 9.7 0.00 0.00 0.00 38 1120.0
20260503225022 14 261 3.2 8.0 0.00 0.00 0.00 38 1119.8
20260503224022 14 345 0.0 3.2 0.00 0.00 0.00 37 1120.0
20260503223023 14 247 3.2 6.4 0.00 0.00 0.00 37 1120.1
20260503222121 15 253 4.8 11.3 0.00 0.00 0.00 37 1120.1
20260503221122 15 257 3.2 8.0 0.00 0.00 0.00 38 1120.1
20260503215123 15 263 1.6 6.4 0.00 0.00 0.00 37 1120.1
20260503214220 15 220 1.6 3.2 0.00 0.00 0.00 37 1120.1
20260503213222 14 292 6.4 12.9 0.00 0.00 0.00 37 1120.0
20260503212221 15 326 3.2 9.7 0.00 0.00 0.00 37 1120.0
20260503211321 16 323 4.8 11.3 0.00 0.00 0.00 37 1120.0
20260503210322 15 311 3.2 8.0 0.00 0.00 0.00 38 1119.8
20260503205325 15 60 0.0 3.2 0.00 0.00 0.00 39 1120.1
20260503203422 14 246 0.0 4.8 0.00 0.00 0.00 39 1120.1
20260503202423 15 269 3.2 6.4 0.00 0.00 0.00 40 1120.5
20260503200620 15 247 4.8 11.3 0.00 0.00 0.00 38 1120.7
20260503195622 15 247 3.2 8.0 0.00 0.00 0.00 38 1120.9
20260503194623 15 321 4.8 11.3 0.00 0.00 0.00 39 1121.1
20260503193622 15 232 0.0 3.2 0.00 0.00 0.00 38 1121.3
20260503193524 15 251 4.8 12.9 0.00 0.00 0.00 38 1121.3
20260503190521 15 258 1.6 6.4 0.00 0.00 0.00 39 1121.7
20260503185522 15 314 3.2 8.0 0.00 0.00 0.00 39 1121.7
20260503184522 14 265 4.8 8.0 0.00 0.00 0.00 39 1122.0
20260503183521 14 256 3.2 9.7 0.00 0.00 0.00 42 1122.0
20260503182521 15 346 3.2 8.0 0.00 0.00 0.00 43 1122.0
20260503180523 13 285 3.2 9.7 0.00 0.00 0.00 42 1122.3
20260503175523 13 336 0.0 8.0 0.00 0.00 0.00 42 1122.5
20260503174621 13 323 3.2 6.4 0.00 0.00 0.00 45 1122.5
20260503173622 13 259 1.6 6.4 0.00 0.00 0.00 42 1122.8
20260503172624 13 233 1.6 4.8 0.00 0.00 0.00 43 1122.8
20260503171722 12 264 3.2 8.0 0.00 0.00 0.00 42 1122.8
20260503170723 12 319 3.2 8.0 0.00 0.00 0.00 41 1122.8
20260503150823 10 248 3.2 12.9 0.00 0.00 0.00 48 1124.0
20260503131021 7 268 0.0 0.0 0.00 0.00 0.00 83 1124.3
20260503120123 2 226 0.0 4.8 0.00 0.00 0.00 93 1122.8
20260503110220 0 337 0.0 0.0 0.00 0.00 0.00 94 1121.7
20260503080923 1 337 0.0 0.0 0.00 0.00 0.00 92 1121.3
20260503072221 1 337 0.0 0.0 0.00 0.00 0.00 92 1120.9
20260503071224 1 337 0.0 0.0 0.00 0.00 0.00 92 1120.9
20260503054422 1 337 0.0 0.0 0.00 0.00 0.00 90 1120.9
20260503051421 1 337 0.0 0.0 0.00 0.00 0.00 89 1120.9
20260503050422 1 337 0.0 0.0 0.00 0.00 0.00 88 1121.3